Location: Marstown
(39.5056°N, 77.0820°W)
Time: 07:07:05
(UTC-04:00)

ISS - Visible Passes

Search period start: 26 May 2017 00:00
Search period end: 05 June 2017 00:00
Orbit: 402 x 408 km, 51.6° (Epoch: 26 May)

Date Brightness Start Highest point End Pass type
(mag) Time Alt. Az. Time Alt. Az. Time Alt. Az.
26 May -0.1 00:28:13 10° NNW 00:28:43 10° N 00:29:14 10° N visible
26 May -0.6 02:04:22 10° NNW 02:06:20 15° NNE 02:08:18 10° NE visible
26 May -3.4 03:40:06 10° NW 03:43:22 62° NE 03:46:36 10° ESE visible
26 May -1.7 21:56:01 10° W 21:58:59 30° NNW 22:01:58 10° NE visible
26 May -0.3 23:35:10 10° NNW 23:36:18 11° N 23:37:27 10° N visible
27 May -0.3 01:12:39 10° NNW 01:13:59 12° NNE 01:15:19 10° NE visible
27 May -2.2 02:48:11 10° NW 02:51:14 35° NNE 02:54:16 10° E visible
27 May -2.8 04:27:43 25° SW 04:27:43 25° SW 04:30:21 10° S visible
27 May -2.8 21:03:36 10° WSW 21:06:50 51° NNW 21:10:04 10° NE visible
27 May -0.5 22:42:07 10° NW 22:43:56 14° NNW 22:45:44 10° NNE visible
28 May -0.3 00:20:53 10° N 00:21:34 10° N 00:22:15 10° NNE visible
28 May -1.0 01:56:20 10° NNW 01:57:35 17° NNW 01:57:35 17° NNW visible
28 May -0.8 21:49:13 10° WNW 21:51:35 18° NNW 21:53:57 10° NNE visible
28 May -0.2 23:28:46 10° N 23:29:08 10° N 23:29:29 10° N visible
29 May -0.8 01:04:32 10° NNW 01:06:21 16° N 01:06:21 16° N visible
29 May -1.3 20:56:28 10° W 20:59:17 26° NNW 21:02:07 10° NNE visible
29 May -0.4 22:35:46 10° NNW 22:36:40 11° N 22:37:35 10° N visible
30 May -0.7 00:12:45 10° NNW 00:14:20 13° NNE 00:15:31 11° NE visible
30 May -0.6 21:42:40 10° NW 21:44:14 13° NNW 21:45:49 10° NNE visible
30 May -0.5 23:20:58 10° N 23:21:54 11° N 23:22:51 10° NNE visible
31 May -0.8 00:56:27 10° NNW 00:57:27 16° NNW 00:57:27 16° NNW visible
31 May -0.4 22:29:02 10° N 22:29:26 10° N 22:29:49 10° N visible
01 Jun -1.1 00:04:35 10° NNW 00:06:50 18° NNE 00:06:50 18° NNE visible
01 Jun -0.5 21:36:15 10° NNW 21:36:56 10° N 21:37:36 10° N visible
01 Jun -0.9 23:12:45 10° NNW 23:14:34 14° NNE 23:16:16 10° NE visible
02 Jun -0.7 00:48:25 10° NW 00:48:54 13° NW 00:48:54 13° NW visible
02 Jun -0.8 22:20:55 10° NNW 22:22:07 11° N 22:23:18 10° NNE visible
02 Jun -1.5 23:56:26 10° NW 23:58:23 25° N 23:58:23 25° N visible
03 Jun -0.6 21:29:03 10° N 21:29:36 10° N 21:30:09 10° NNE visible
03 Jun -1.6 23:04:31 10° NNW 23:07:05 21° NNE 23:07:54 19° NE visible
04 Jun -1.1 22:12:39 10° NNW 22:14:41 15° NNE 22:16:43 10° NE visible
04 Jun -1.7 23:48:23 10° NW 23:50:04 27° NW 23:50:04 27° NW visible
